Regional Weather Roundup
Issued by NWS State College, PA

Home | Current Version | Previous Version | Text Only | Print | Product List | Glossary On
Versions: 1 2 3 4 5 6 7 8 9 10 11 12 13 14 15 16 17 18 19 20 21 22 23 24 25 26 27 28 29 30 31 32 33 34 35 36 37 38 39 40 41 42 43 44 45 46 47 48 49 50
000
ASUS41 KCTP 281510
RWRCTP

REGIONAL WEATHER ROUNDUP
NATIONAL WEATHER SERVICE STATE COLLEGE PA
1100 AM EDT TUE JUL 28 2015

Note: "fair" indicates few or no clouds below 12,000 feet with no
significant weather and/or obstructions to visibility.

* = STATION THAT DOES NOT REPORT PRECIPITATION /E.G. RAIN...SNOW...ETC/
    THUNDER OR FOG.

PAZ002>004-007>009-013>016-020>023-029>032-281600-
WESTERN PENNSYLVANIA

CITY           SKY/WX    TMP DP  RH WIND       PRES   REMARKS
ERIE           SUNNY     84  66  54 NW5       30.05S
MEADVILLE      LGT RAIN  83  63  50 VRB3      30.08S
FRANKLIN*      SUNNY     81  63  54 E6        30.10S
NEW CASTLE     FAIR      84  71  65 CALM      30.06S
BEAVER COUNTY  SUNNY     81  68  65 E3        30.06F
BUTLER*        SUNNY     81  68  65 E12       30.08R
PITTSBURGH INT MOSUNNY   82  68  62 VRB6      30.05S
PITTSBURGH     SUNNY     81  66  60 E5        30.04F
INDIANA*       SUNNY     81  68  65 SE10      30.10F
LATROBE        MOSUNNY   81  72  74 E8        30.06F
WASHINGTON CO* NOT AVBL
$$

PAZ004>006-010>012-017>019-024>028-033>037-041-042-045-046-049>053-281600-
CENTRAL PENNSYLVANIA

CITY           SKY/WX    TMP DP  RH WIND       PRES   REMARKS
BRADFORD       SUNNY     79  60  52 VRB3      30.12F
DUBOIS         SUNNY     82  63  52 E5        30.09F
CLEARFIELD     SUNNY     79  66  64 E6        30.10S
JOHNSTOWN      MOSUNNY   78  64  61 E8        30.11S
ALTOONA        MOSUNNY  N/A N/A N/A VRB5      30.09S
STATE COLLEGE  PTSUNNY   70  70 100 CALM      30.09F FOG
WILLIAMSPORT   SUNNY     76  68  76 VRB3      30.04S
SELINSGROVE    SUNNY     78  71  79 CALM      30.06S HAZE
FT INDIANTOWN  MOSUNNY   80  78  96 VRB1      30.03F
CAPITAL CITY   MOSUNNY   81  71  71 VRB3      30.03F HAZE
HARRISBURG     MOSUNNY   80  73  79 S3        30.03S HAZE
YORK           PTSUNNY   80  73  79 CALM      30.05R HAZE
$$

PAZ038>040-043-044-047-048-054-055-060>062-067>071-281600-
EASTERN PENNSYLVANIA

CITY           SKY/WX    TMP DP  RH WIND       PRES   REMARKS
SCRANTON       SUNNY     73  67  81 VRB3      30.05F
MOUNT POCONO   MOSUNNY   81  56  42 NE7       30.09S
ALLENTOWN      SUNNY     86  68  54 CALM      30.02F
QUAKERTOWN*    SUNNY     84  66  54 CALM      30.03S
READING        MOSUNNY   85  71  63 NW5       30.01F
LANCASTER      SUNNY     81  73  76 CALM      30.03F HAZE
COATESVILLE    SUNNY     82  72  69 E6        30.04F
POTTSTOWN      SUNNY     82  73  74 CALM      30.03F
BLUE BELL      PTSUNNY   86  72  62 CALM      30.01S
DOYLESTOWN     SUNNY     83  67  58 CALM      30.01S
WILLOW GROVE   NOT AVBL
NORTH PHILA    MOSUNNY   86  67  52 E3        30.02S
PHILADELPHIA   MOSUNNY   86  70  58 VRB3      30.01F
$$


USA.gov is the U.S. government's official web portal to all federal, state and local government web resources and services.